Location: *
(51.0333°S, 178.4667°E)
Time: 05:34:56
(UTC+00:00)

ISS - Visible Passes

Search period start: 25 January 2020 00:00
Search period end: 04 February 2020 00:00
Orbit: 415 x 423 km, 51.6° (Epoch: 25 January)

Date Brightness Start Highest point End Pass type
(mag) Time Alt. Az. Time Alt. Az. Time Alt. Az.
27 Jan -1.1 15:51:52 10° NNE 15:53:14 12° NE 15:54:38 10° ENE visible
29 Jan -2.1 15:51:42 10° NNW 15:54:33 25° NE 15:57:24 10° E visible
30 Jan -1.7 15:05:27 13° N 15:07:09 18° NE 15:09:31 10° E visible
31 Jan -1.3 14:19:41 12° NE 14:19:48 12° NE 14:21:11 10° ENE visible
31 Jan -3.2 15:52:40 10° NW 15:55:59 47° NNE 15:59:18 10° E visible
01 Feb -2.8 15:06:50 21° NNW 15:08:29 34° NNE 15:11:39 10° E visible
02 Feb -2.3 14:20:59 25° NNE 14:21:01 25° NE 14:23:53 10° E visible
02 Feb -3.7 15:54:06 10° WNW 15:57:31 78° NNE 16:00:58 10° ESE visible
03 Feb -1.3 13:35:07 14° ENE 13:35:07 14° ENE 13:35:57 10° E visible
03 Feb -3.6 15:08:03 24° NW 15:09:56 62° NNE 15:13:20 10° E visible
